Weather History for Westhampton Beach, NY

Change the Weather History Date:

Wednesday, August 1, 2012

  Actual Average Record
Temperature  
Mean Temperature 70 °F -  
Max Temperature 80 °F 78 °F 93 °F (2006)
Min Temperature 59 °F 60 °F 54 °F (1998)
Cooling Degree Days 4    
Growing Degree Days 20 (Base 50)    
Moisture  
Dew Point 66 °F    
Average Humidity 83    
Maximum Humidity 94    
Minimum Humidity 69    
Precipitation  
Precipitation 0.00 in - - ()
Sea Level Pressure  
Sea Level Pressure 29.91 in    
Wind  
Wind Speed 3 mph (South)    
Max Wind Speed 13 mph    
Max Gust Speed 18 mph    
Visibility 9 miles    
Events Rain    
Averages and records for this station are not official NWS values.
T = Trace of Precipitation, MM = Missing Value Source: NWS Daily Summary

Daily Weather History Graph

Daily Weather History Graph

Search for Another Location

Airport:

Trip Planner

Search our weather history database for the weather conditions in past years. The results will help you decide how hot, cold, wet, or windy it might be!

Date:

Astronomy

Aug. 01, 2012 Rise Set
Actual Time 5:47 AM EDT 8:05 PM EDT
Civil Twilight 5:16 AM EDT 8:36 PM EDT
Nautical Twilight 4:38 AM EDT 9:14 PM EDT
Astronomical Twilight 3:56 AM EDT 9:55 PM EDT
Moon 7:33 PM EDT (8/1) 5:13 AM EDT (8/1)
Length of Visible Light 15h 19m
Length of Day
14h 18m
Full, 100% of the Moon is Illuminated
Aug 1
Full
Aug 1
Full
Aug 9
Last Quarter
Aug 17
New
Aug 24
First Quarter

Hourly Weather History & Observations

Time (EDT) Temp. Heat Index Dew Point Humidity Pressure Visibility Wind Dir Wind Speed Gust Speed Precip Events Conditions
12:53 AM 63.0 °F - 61.0 °F 93% 29.96 in 10.0 mi Calm Calm - N/A   Clear
1:53 AM 61.0 °F - 59.0 °F 93% 29.96 in 10.0 mi Calm Calm - N/A   Clear
2:53 AM 61.0 °F - 57.9 °F 90% 29.93 in 9.0 mi Calm Calm - N/A   Clear
3:10 AM 60.8 °F - 57.2 °F 88% 29.92 in 2.5 mi Calm Calm - N/A   Clear
3:18 AM 60.8 °F - 57.2 °F 88% 29.92 in 8.0 mi Calm Calm - N/A   Clear
3:37 AM 60.8 °F - 57.2 °F 88% 29.93 in 2.0 mi Calm Calm - N/A   Scattered Clouds
3:43 AM 60.8 °F - 57.2 °F 88% 29.92 in 1.0 mi Calm Calm - N/A   Mist
3:53 AM 60.1 °F - 57.9 °F 93% 29.92 in 1.5 mi Calm Calm - N/A   Mostly Cloudy
4:00 AM 59.0 °F - 57.2 °F 94% 29.92 in 2.5 mi Calm Calm - N/A   Mostly Cloudy
4:12 AM 60.8 °F - 57.2 °F 88% 29.92 in 7.0 mi Calm Calm - N/A   Scattered Clouds
4:53 AM 59.0 °F - 57.0 °F 93% 29.92 in 10.0 mi Calm Calm - N/A   Clear
5:24 AM 59.0 °F - 55.4 °F 88% 29.93 in 9.0 mi Calm Calm - N/A   Scattered Clouds
5:53 AM 61.0 °F - 57.9 °F 90% 29.92 in 9.0 mi Calm Calm - N/A   Mostly Cloudy
6:53 AM 66.0 °F - 63.0 °F 90% 29.93 in 8.0 mi South 3.5 mph - N/A   Clear
7:53 AM 73.9 °F - 70.0 °F 87% 29.94 in 10.0 mi South 5.8 mph - N/A   Clear
8:32 AM 75.2 °F - 69.8 °F 83% 29.93 in 10.0 mi South 8.1 mph - N/A   Mostly Cloudy
8:53 AM 75.9 °F - 70.0 °F 82% 29.94 in 10.0 mi South 8.1 mph - N/A   Mostly Cloudy
9:53 AM 77.0 °F - 70.0 °F 79% 29.94 in 10.0 mi SW 6.9 mph - N/A   Overcast
10:16 AM 78.8 °F - 69.8 °F 74% 29.93 in 10.0 mi South 5.8 mph - N/A   Mostly Cloudy
10:34 AM 78.8 °F - 71.6 °F 78% 29.94 in 10.0 mi South 8.1 mph - N/A   Mostly Cloudy
10:53 AM 79.0 °F - 70.0 °F 74% 29.94 in 10.0 mi SSE 12.7 mph - N/A   Mostly Cloudy
11:19 AM 78.8 °F - 69.8 °F 74% 29.92 in 10.0 mi South 9.2 mph - N/A   Scattered Clouds
11:53 AM 79.0 °F - 70.0 °F 74% 29.91 in 10.0 mi SSE 8.1 mph - N/A   Partly Cloudy
12:53 PM 80.1 °F 82.9 °F 69.1 °F 69% 29.92 in 10.0 mi Variable 6.9 mph - N/A   Partly Cloudy
1:42 PM 78.8 °F - 69.8 °F 74% 29.91 in 10.0 mi SSE 8.1 mph - N/A   Mostly Cloudy
1:53 PM 78.1 °F - 70.0 °F 76% 29.91 in 10.0 mi South 10.4 mph - N/A   Overcast
2:24 PM 78.8 °F - 68.0 °F 69% 29.90 in 10.0 mi South 9.2 mph - N/A   Scattered Clouds
2:46 PM 78.8 °F - 69.8 °F 74% 29.90 in 10.0 mi South 8.1 mph 18.4 mph N/A   Mostly Cloudy
2:53 PM 78.1 °F - 69.1 °F 74% 29.90 in 10.0 mi South 11.5 mph - N/A   Mostly Cloudy
3:12 PM 78.8 °F - 69.8 °F 74% 29.89 in 10.0 mi South 10.4 mph - N/A   Scattered Clouds
3:38 PM 78.8 °F - 69.8 °F 74% 29.89 in 10.0 mi SSE 6.9 mph - N/A   Mostly Cloudy
3:53 PM 77.0 °F - 69.1 °F 76% 29.89 in 10.0 mi SSE 6.9 mph - N/A   Mostly Cloudy
4:41 PM 75.2 °F - 69.8 °F 83% 29.90 in 10.0 mi South 9.2 mph - N/A   Scattered Clouds
4:51 PM 77.0 °F - 69.8 °F 78% 29.90 in 10.0 mi South 6.9 mph - N/A   Mostly Cloudy
4:53 PM 77.0 °F - 70.0 °F 79% 29.90 in 10.0 mi South 6.9 mph - N/A   Mostly Cloudy
5:01 PM 77.0 °F - 69.8 °F 78% 29.90 in 10.0 mi South 8.1 mph - N/A   Partly Cloudy
5:53 PM 75.9 °F - 70.0 °F 82% 29.89 in 10.0 mi South 6.9 mph - N/A   Scattered Clouds
6:22 PM 75.2 °F - 69.8 °F 83% 29.89 in 10.0 mi South 4.6 mph - N/A   Mostly Cloudy
6:53 PM 75.0 °F - 70.0 °F 84% 29.88 in 10.0 mi South 4.6 mph - N/A   Mostly Cloudy
7:09 PM 75.2 °F - 71.6 °F 89% 29.88 in 10.0 mi SSE 3.5 mph - N/A   Scattered Clouds
7:25 PM 73.4 °F - 71.6 °F 94% 29.88 in 10.0 mi South 3.5 mph - N/A   Partly Cloudy
7:53 PM 73.9 °F - 70.0 °F 87% 29.88 in 10.0 mi Calm Calm - N/A   Clear
8:53 PM 72.0 °F - 69.1 °F 91% 29.88 in 10.0 mi Calm Calm - N/A   Clear
9:53 PM 71.1 °F - 68.0 °F 90% 29.88 in 9.0 mi Calm Calm - N/A   Clear
10:53 PM 72.0 °F - 69.1 °F 91% 29.87 in 9.0 mi Calm Calm - 0.00 in Rain Light Rain
11:53 PM 72.0 °F - 70.0 °F 93% 29.88 in 10.0 mi Calm Calm - 0.00 in   Clear